Change the Weather History Date:

Tuesday, August 27, 2013

  Actual Average Record
Temperature  
Mean Temperature 68 °F 62 °F  
Max Temperature 87 °F 81 °F 91 °F (2001)
Min Temperature 49 °F 44 °F 37 °F (2004)
Degree Days  
Heating Degree Days 0 3  
Month to date heating degree days 5 38  
Since 1 June heating degree days 93 238  
Since 1 July heating degree days 5 63  
Cooling Degree Days 3 0  
Month to date cooling degree days 78 51  
Year to date cooling degree days 310 140  
Since 1 June cooling degree days 310 140  
Growing Degree Days 18 (Base 50)    
Moisture  
Dew Point 51 °F    
Average Humidity 63    
Maximum Humidity 96    
Minimum Humidity 29    
Precipitation  
Precipitation 0.00 in 0.06 in 0.76 in (2014)
Month to date precipitation 0.39 1.18  
Year to date precipitation 6.11 9.85  
Sea Level Pressure  
Sea Level Pressure 30.05 in    
Wind  
Wind Speed 4 mph (NNW)    
Max Wind Speed 18 mph    
Max Gust Speed 25 mph    
Visibility 10 miles    
Events      
T = Trace of Precipitation, MM = Missing Value Source: NWS Daily Summary

Daily Weather History Graph

Daily Weather History Graph

Search for Another Location

Airport or City:

Trip Planner

Search our weather history database for the weather conditions in past years. The results will help you decide how hot, cold, wet, or windy it might be!

Date:

Astronomy

Aug. 27, 2013 Rise Set
Actual Time 6:32 AM MDT 7:49 PM MDT
Civil Twilight 6:04 AM MDT 8:17 PM MDT
Nautical Twilight 5:30 AM MDT 8:51 PM MDT
Astronomical Twilight 4:54 AM MDT 9:26 PM MDT
Moon 11:43 PM MDT (8/27) 1:35 PM MDT (8/27)
Length of Visible Light 14h 13m
Length of Day
13h 16m
Waning Gibbous, 56% of the Moon is Illuminated
Aug 27
Waning Gibbous
Aug 28
Last Quarter
Sep 5
New
Sep 12
First Quarter
Sep 19
Full

Hourly Weather History & Observations

Time (MDT) Temp. Dew Point Humidity Pressure Visibility Wind Dir Wind Speed Gust Speed Precip Events Conditions
12:53 AM 59.0 °F 54.0 °F 83% 30.09 in 10.0 mi Calm Calm - N/A   Clear
1:53 AM 55.0 °F 52.0 °F 89% 30.11 in 10.0 mi Calm Calm - N/A   Clear
2:53 AM 53.1 °F 50.0 °F 89% 30.13 in 10.0 mi Calm Calm - N/A   Clear
3:53 AM 53.1 °F 50.0 °F 89% 30.12 in 10.0 mi Calm Calm - N/A   Overcast
4:53 AM 52.0 °F 50.0 °F 93% 30.14 in 10.0 mi Calm Calm - N/A   Clear
5:53 AM 51.1 °F 48.9 °F 92% 30.12 in 10.0 mi Calm Calm - N/A   Clear
6:53 AM 50.0 °F 48.0 °F 93% 30.14 in 10.0 mi West 3.5 mph - N/A   Clear
7:53 AM 59.0 °F 53.1 °F 81% 30.12 in 10.0 mi ENE 3.5 mph - N/A   Clear
8:53 AM 64.9 °F 53.1 °F 65% 30.12 in 10.0 mi NE 6.9 mph - N/A   Partly Cloudy
9:53 AM 70.0 °F 53.1 °F 55% 30.10 in 10.0 mi ENE 6.9 mph - N/A   Partly Cloudy
10:53 AM 75.0 °F 53.1 °F 46% 30.10 in 10.0 mi NE 3.5 mph - N/A   Mostly Cloudy
11:53 AM 78.1 °F 53.1 °F 42% 30.07 in 10.0 mi Variable 4.6 mph - N/A   Clear
12:53 PM 81.0 °F 52.0 °F 36% 30.02 in 10.0 mi ENE 4.6 mph - N/A   Partly Cloudy
1:53 PM 82.0 °F 50.0 °F 33% 30.01 in 10.0 mi Calm Calm - N/A   Scattered Clouds
2:53 PM 86.0 °F 50.0 °F 29% 29.98 in 10.0 mi West 18.4 mph 24.2 mph N/A   Scattered Clouds
3:53 PM 84.9 °F 48.9 °F 29% 29.97 in 10.0 mi WNW 10.4 mph - N/A   Scattered Clouds
4:53 PM 82.9 °F 48.9 °F 31% 29.96 in 10.0 mi WNW 9.2 mph - N/A   Clear
5:53 PM 84.9 °F 48.9 °F 29% 29.95 in 10.0 mi West 13.8 mph - N/A   Mostly Cloudy
6:53 PM 81.0 °F 48.0 °F 31% 29.97 in 10.0 mi WNW 9.2 mph - N/A   Mostly Cloudy
7:53 PM 73.0 °F 50.0 °F 44% 29.99 in 10.0 mi West 8.1 mph - N/A   Clear
8:53 PM 70.0 °F 50.0 °F 49% 30.00 in 10.0 mi Calm Calm - N/A   Clear
9:53 PM 66.0 °F 52.0 °F 60% 30.02 in 10.0 mi Calm Calm - N/A   Partly Cloudy
10:53 PM 66.0 °F 54.0 °F 65% 30.02 in 10.0 mi ENE 3.5 mph - N/A   Mostly Cloudy
11:53 PM 64.9 °F 53.1 °F 65% 30.02 in 10.0 mi Calm Calm - N/A   Mostly Cloudy